Location: Elbart
(49.6135°N, 11.9134°E)
Time: 15:42:01
(UTC+00:00)

FALCON 9 DEB - Pass Details

Date: 09 April 2020
Orbit: 429 x 442 km, 53.0° (Epoch: 28 May)

Event Time Altitude Azimuth Distance (km) Brightness Sun altitude
Rises 19:27:36 0° 239° (WSW) 2,425 7.3 -14.4°
Reaches altitude 10° 19:29:43 10° 237° (WSW) 1,557 6.3 -14.7°
Maximum altitude 19:33:13 72° 153° (SSE) 469 3.0 -15.1°
Enters shadow 19:35:23 21° 72° (ENE) 1,037 4.7 -15.4°
